This is the latest recevied weather packets stored in our database for station/object KE0FIN. If no packets are shown the sender has not sent any weather packets the latest 10 day(s).
| Time | Temp. | Humidity | Pressure | Rain* | Wind** | Luminosity | Snow |
|---|---|---|---|---|---|---|---|
| 1777598258 | 13.33° C | 82% | 1068.7 hPa | 0 mm | - | 2 W/m² | - |
| 1777597957 | 13.89° C | 81% | 1068.8 hPa | 0 mm | - | 3 W/m² | - |
| 1777597656 | 13.89° C | 80% | 1068.5 hPa | 0 mm | - | 4 W/m² | - |
| 1777597351 | 13.89° C | 80% | 1068.7 hPa | 0 mm | - | 6 W/m² | - |
| 1777597047 | 13.89° C | 79% | 1068.6 hPa | 0 mm | - | 7 W/m² | - |
| 1777596744 | 14.44° C | 78% | 1068.4 hPa | 0 mm | - | 8 W/m² | - |
| 1777596440 | 14.44° C | 77% | 1068.5 hPa | 0 mm | - | 9 W/m² | - |
| 1777596138 | 15° C | 77% | 1068.5 hPa | 0 mm | - | 13 W/m² | - |
| 1777595834 | 15° C | 77% | 1068.5 hPa | 0 mm | - | 19 W/m² | - |
| 1777595529 | 15° C | 76% | 1068.5 hPa | 0 mm | - | 28 W/m² | - |
| 1777595225 | 15° C | 77% | 1068.6 hPa | 0 mm | - | 35 W/m² | - |
| 1777594921 | 14.44° C | 78% | 1068.5 hPa | 0 mm | - | 33 W/m² | - |
| 1777594618 | 14.44° C | 78% | 1068.4 hPa | 0 mm | - | 33 W/m² | - |
| 1777594314 | 14.44° C | 77% | 1068.3 hPa | 0 mm | - | 35 W/m² | - |
| 1777594010 | 14.44° C | 77% | 1068.5 hPa | 0 mm | - | 40 W/m² | - |
| 1777593706 | 14.44° C | 78% | 1068.4 hPa | 0 mm | - | 41 W/m² | - |
| 1777593403 | 14.44° C | 78% | 1068.6 hPa | 0 mm | - | 42 W/m² | - |
| 1777593102 | 14.44° C | 77% | 1068.4 hPa | 0 mm | - | 31 W/m² | - |
| 1777592801 | 14.44° C | 76% | 1068.5 hPa | 0 mm | - | 23 W/m² | - |
| 1777592497 | 14.44° C | 76% | 1068.8 hPa | 0 mm | - | 13 W/m² | - |
| 1777592193 | 15° C | 74% | 1068.8 hPa | 0 mm | - | 22 W/m² | - |
| 1777591889 | 15° C | 68% | 1068.6 hPa | 0 mm | - | 23 W/m² | - |
| 1777591586 | 15° C | 73% | 1068.9 hPa | 0 mm | - | 17 W/m² | - |
| 1777591282 | 14.44° C | 73% | 1068.7 hPa | 0 mm | - | 19 W/m² | - |
| 1777590978 | 14.44° C | 74% | 1068.8 hPa | 0 mm | - | 25 W/m² | - |
* Rain latest hour (hover to see other rain measurements)
** Current wind speed in m/s (hover to see current wind gust speed)